Probability
0 0 0 0 0 0 0 0 0 0 0 0 0 0 0 0 0 0 0 0 0 0 0 0 0 0 0 0 0 0 0 0 0 1 16 52 86 98
0 0 0 0 0 0 0 0 0 0 0 0 0 0 0 0 0 0 0 0 0 0 0 0 0 0 0 0 0 0 0 0 0 1 17 52 85 97
0 0 0 0 0 0 0 0 0 0 0 0 0 0 0 0 0 0 0 0 0 0 0 0 0 0 0 0 0 0 0 0 0 5 24 56 79 83
0 0 0 0 0 0 0 0 0 0 0 0 0 0 0 0 0 0 0 0 0 0 0 0 0 0 0 0 0 0 0 0 1 9 28 49 54 47
0 0 0 0 0 0 0 0 0 0 0 0 0 0 0 0 0 0 0 0 0 0 0 0 0 0 0 0 0 0 0 0 1 8 18 22 19 13
0 0 0 0 0 0 0 0 0 0 0 0 0 0 0 0 0 0 0 0 0 0 0 0 0 0 0 0 0 0 0 0 1 3 4 3 1 0
0 0 0 0 0 0 0 0 0 0 0 0 0 0 0 0 0 0 0 0 0 0 0 0 0 0 0 0 0 0 0 0 0 0 0 0 0 0
0 0 0 0 0 0 0 0 0 0 0 0 0 0 0 0 0 0 0 0 0 0 0 0 0 0 0 0 0 0 0 0 0 0 0 0 0 0
0 0 0 0 0 0 0 0 0 0 0 0 0 0 0 0 0 0 0 0 0 0 0 0 0 0 0 0 0 0 0 0 0 0 0 0 0 0
0 0 0 0 0 0 0 0 0 0 0 0 0 0 0 0 0 0 0 0 0 0 0 0 0 0 0 0 0 0 0 0 0 0 0 0 0 0
0 0 0 0 0 0 0 0 0 0 0 0 0 0 0 0 0 0 0 0 0 0 0 0 0 0 0 0 0 0 0 0 0 0 0 0 0 0
0 0 0 0 0 0 0 0 0 0 0 0 0 0 0 0 0 0 0 0 0 0 0 0 0 0 0 0 0 0 0 0 0 0 0 0 0 0
0 0 0 0 0 0 0 0 0 0 0 0 0 0 0 0 0 0 0 0 0 0 0 0 0 0 0 0 0 0 0 0 0 0 0 0 0 0
0 0 0 0 0 0 0 0 0 0 0 0 0 0 0 0 0 0 0 0 0 0 0 0 0 0 0 0 0 0 0 0 0 0 0 0 0 0
0 0 0 0 0 0 0 0 0 0 0 0 0 0 0 0 0 0 0 0 0 0 0 0 0 0 0 0 0 0 0 0 0 0 0 0 0 0
0 0 0 0 0 0 0 0 0 0 0 0 0 0 0 0 0 0 0 0 0 0 0 0 0 0 0 0 0 0 0 0 0 0 0 0 0 0
0 0 0 0 0 0 0 0 0 0 0 0 0 0 0 0 0 0 0 0 0 0 0 0 0 0 0 0 0 0 0 0 0 0 0 0 0 0
0 0 0 0 0 0 0 0 0 0 0 0 0 0 0 0 0 0 0 0 0 0 0 0 0 0 0 0 0 0 0 0 0 0 0 0 0 0
0 0 0 0 0 0 0 0 0 0 0 0 0 0 0 0 0 0 0 0 0 0 0 0 0 0 0 0 0 0 0 0 0 0 0 0 0 0
0 0 0 0 0 0 0 0 0 0 0 0 0 0 0 0 0 0 0 0 0 0 0 0 0 0 0 0 0 0 0 0 0 0 0 0 0 0
0 0 0 0 0 0 0 0 0 0 0 0 0 0 0 0 0 0 0 0 0 0 0 0 0 0 0 0 0 0 0 0 0 0 0 0 0 0
0 0 0 0 0 0 0 0 0 0 0 0 0 0 0 0 0 0 0 0 0 0 0 0 0 0 0 0 0 0 0 0 0 0 0 0 0 0
0 0 0 0 0 0 0 0 0 0 0 0 0 0 0 0 0 0 0 0 0 0 0 0 0 0 0 0 0 0 0 0 0 0 0 0 0 0
Wind_Speed
7 8 7 6 6 6 6 6 8 10 9 7 7 7 6 6 7 7 3 2 2 2 4 7 11 15 20 23 26 27 28 27 26 24 22 20 17 18
6 8 8 7 6 6 6 6 7 9 8 4 6 8 8 10 12 5 1 5 4 4 5 8 12 16 20 23 26 28 28 28 26 24 21 18 18 23
9 10 10 9 7 6 6 6 7 7 10 7 6 7 7 8 6 2 2 2 2 6 9 12 16 20 23 25 26 27 27 26 25 23 20 18 22 27
12 11 11 9 9 7 6 8 8 8 9 11 7 6 7 6 3 2 2 3 2 7 11 15 20 24 27 27 24 22 22 22 22 20 20 24 28 30
12 12 11 10 9 7 8 8 7 8 7 9 8 5 4 2 2 4 5 3 4 7 11 15 20 26 30 28 16 12 16 19 19 22 27 31 31 32
12 11 10 9 9 9 8 8 8 9 8 8 7 5 3 2 3 4 4 4 5 6 9 12 18 26 32 26 8 12 19 23 26 30 31 31 32 33
12 10 9 12 14 12 11 10 11 9 8 8 7 5 4 4 4 3 5 5 5 5 5 9 11 13 19 21 17 24 30 32 34 35 35 34 34 34
10 9 10 10 15 19 22 22 21 15 11 8 6 5 4 5 6 6 5 2 3 4 4 8 9 12 14 15 24 31 36 38 38 38 38 36 35 34
10 9 9 11 14 13 19 23 21 20 17 9 7 5 5 6 8 7 5 5 5 2 3 7 9 11 11 17 30 34 37 38 39 39 38 37 35 34
11 9 9 11 13 17 17 16 14 8 7 7 5 4 7 9 9 9 11 10 8 6 5 6 7 9 11 12 26 32 34 36 37 37 36 36 34 32
13 10 10 12 17 21 17 15 12 3 3 6 6 11 16 17 15 12 10 10 9 6 4 5 6 8 10 11 18 29 31 32 33 34 34 33 31 28
12 11 13 16 20 20 14 12 8 3 6 9 12 16 15 14 12 9 7 9 9 6 4 4 5 4 8 9 9 11 16 25 28 27 26 23 20 15
11 10 10 19 18 17 14 9 6 5 8 11 11 12 10 9 9 7 6 4 6 8 5 2 3 5 8 8 7 7 7 8 9 11 15 18 17 15
10 9 11 18 15 14 11 12 10 8 7 9 10 9 9 9 9 9 11 11 10 10 7 6 8 8 9 10 7 5 5 5 6 8 10 15 17 18
10 17 17 15 11 9 13 14 9 6 6 9 10 10 9 10 11 11 13 12 12 11 10 8 7 6 6 7 7 7 8 6 6 7 8 8 8 7
12 13 13 12 9 9 9 8 7 7 7 8 10 10 10 9 10 9 10 9 10 10 7 6 6 7 6 7 7 7 5 5 5 5 7 7 8 9
12 7 7 7 7 6 6 7 6 7 8 8 9 10 9 9 9 7 7 9 9 9 7 6 6 6 6 5 7 7 7 7 6 7 9 10 10 10
9 7 8 7 7 6 6 6 7 7 7 8 8 8 9 9 8 7 7 8 9 8 8 7 6 6 7 7 6 7 6 6 7 8 9 10 10 9
8 7 8 8 7 6 5 6 6 7 7 7 8 8 8 8 7 7 7 7 8 8 7 6 6 7 10 10 7 6 6 5 6 8 8 8 9 7
8 8 8 8 7 6 5 5 6 6 6 7 7 7 7 7 6 6 6 7 7 7 7 6 5 5 7 9 8 6 6 6 8 9 10 9 8 10
8 8 8 7 7 6 5 6 6 6 7 6 6 6 6 5 5 5 6 8 7 6 6 6 8 10 7 6 7 6 7 11 11 8 9 8 7 6
8 8 8 8 7 6 5 5 6 6 6 5 5 4 4 4 5 6 5 5 5 7 9 9 9 7 7 9 10 10 10 10 12 14 10 3 5 5
7 7 7 7 7 6 5 5 6 5 4 4 3 4 4 4 4 5 5 6 7 8 9 8 7 7 8 7 8 8 9 8 7 8 7 12 15 21
Wind_Direction
291 290 285 282 279 278 278 278 284 290 286 283 290 295 302 307 312 322 329 115 111 56 4 331 315 304 293 283 274 266 259 253 247 242 241 245 219 179
283 280 280 278 277 275 274 272 268 276 281 266 276 282 287 288 294 305 198 143 113 73 23 350 332 319 305 291 278 265 254 244 237 232 231 226 189 159
299 291 285 281 275 272 270 269 266 264 276 277 269 274 273 276 281 244 179 154 101 50 16 356 345 335 322 305 284 263 247 234 224 219 212 193 158 144
307 301 296 292 282 275 270 268 265 259 267 278 276 269 265 268 255 182 128 99 56 23 5 356 350 343 333 316 289 254 230 213 204 196 176 151 138 134
304 301 299 298 295 290 283 276 270 268 258 268 274 261 254 232 155 107 83 56 37 15 6 357 351 351 343 330 298 227 193 180 170 153 137 131 130 129
302 297 296 301 302 304 299 290 285 278 266 262 265 255 230 166 133 119 98 63 42 25 16 4 358 360 353 351 12 126 130 128 125 122 121 121 120 118
308 310 315 316 318 318 310 299 290 277 266 256 252 239 208 159 143 126 117 100 58 27 23 14 5 6 359 6 46 94 102 105 106 107 108 108 108 108
322 324 319 321 325 318 311 305 296 281 262 244 238 224 189 147 134 137 135 129 82 20 36 32 20 23 12 19 51 77 89 94 97 98 99 100 101 102
323 320 323 327 324 317 313 308 298 282 257 234 227 210 165 146 141 131 102 85 84 49 43 50 32 37 25 35 52 68 80 86 90 92 94 95 95 96
321 319 329 330 326 324 315 308 302 285 235 212 216 181 138 134 126 119 113 101 80 50 43 67 49 47 40 41 55 66 76 83 88 91 92 92 92 92
321 328 339 334 328 327 321 315 315 316 162 163 146 126 123 124 126 122 122 114 100 74 43 77 82 74 59 54 59 69 77 83 89 92 94 94 95 94
323 332 336 334 331 330 327 322 327 48 104 104 104 105 108 109 106 113 123 124 118 101 75 95 111 95 77 63 65 68 75 84 89 93 96 97 98 99
327 332 329 330 333 334 334 339 0 73 97 103 104 106 104 99 91 82 75 86 103 105 131 123 99 88 101 107 94 92 94 98 97 97 99 101 100 103
328 327 325 331 340 347 354 8 34 73 97 103 105 104 103 100 95 90 87 85 90 99 101 96 104 109 112 112 107 104 95 91 96 101 103 101 103 112
333 330 333 343 356 358 2 18 37 64 92 101 101 101 101 103 103 101 98 96 92 94 97 97 101 99 94 102 102 108 106 97 97 106 112 116 122 123
336 329 335 353 7 8 9 27 46 56 77 94 101 103 105 107 108 112 114 111 107 107 107 103 98 99 99 96 102 107 106 109 115 107 102 95 85 77
326 334 357 360 7 20 25 36 51 61 73 86 100 106 108 107 108 109 113 116 118 122 123 116 103 99 96 96 99 98 101 100 98 96 93 87 76 72
343 2 2 1 6 23 36 43 53 63 70 82 94 103 109 110 108 104 111 116 121 124 124 126 127 116 101 79 76 101 100 101 100 95 93 93 86 73
7 6 3 2 5 21 41 52 63 69 73 81 90 98 105 108 107 111 119 123 124 126 129 132 131 127 121 113 91 79 105 109 105 99 94 95 97 93
4 3 3 2 6 22 44 56 67 76 79 83 88 93 99 104 107 112 120 127 127 129 132 135 128 122 121 118 110 78 56 101 99 97 94 89 87 95
357 358 0 3 9 23 44 57 67 78 83 84 88 95 102 108 115 120 125 134 131 133 130 124 116 113 104 99 91 75 57 70 97 116 126 127 130 125
356 353 355 4 12 23 36 59 72 81 85 84 88 97 108 115 121 125 126 122 111 108 109 112 114 111 109 110 110 106 97 87 80 78 62 98 159 144
352 349 350 359 11 22 29 51 72 83 87 86 87 99 113 113 108 106 108 109 111 114 117 117 113 111 116 118 115 115 118 106 89 72 45 33 87 105